User: anonymous   Login
Location: Owatonna
(44.0840°N, 93.2260°W)
Time: 20:35:10
(UTC-05:00)
Language:

Cosmos 839 Rocket - Orbit

View from above orbital plane
View from above orbital plane
View from above satellite
View from above satellite

Ground track
Ground track

The orbit data is extracted from the following two-line orbital elements,

1 09013U 76067B   15112.57249422 -.00000036  00000-0  62023-4 0  9991
2 09013 065.8635 093.7544 0712085 020.5460 110.0492 12.35316030749483
Epoch (UTC): 22 April 2015 13:44:23
Eccentricity: 0.0712085
inclination: 65.8635°
perigee height: 963 km
apogee height: 2089 km
right ascension of ascending node: 93.7544°
argument of perigee: 20.5460°
revolutions per day: 12.35316030
mean anomaly at epoch: 110.0492°
orbit number at epoch: 74948

The dashed part of the orbit path shows where the satellite is in the earth's shadow,  

DLR